Station CWBF1 - 8726724 - Clearwater Beach, FL Image indicating link to RSS feed of recent meteorological observations for station CWBF1


Conditions at CWBF1 as of
(7:24 pm EDT)
2324 GMT on 05/19/2024:
     

Click on the graph icon in the table below to see a time series plot of the last five days of that observation.

5-day plot - Wind Direction Wind Direction (WDIR): NW ( 310 deg true )
5-day plot - Wind Speed Wind Speed (WSPD): 6.0 kts
5-day plot - Wind Gust Wind Gust (GST): 7.0 kts
5-day plot - Atmospheric Pressure Atmospheric Pressure (PRES):29.91 in
5-day plot - Air Temperature Air Temperature (ATMP): 81.5 °F
5-day plot - Water Temperature Water Temperature (WTMP): 86.2 °F
5-day plot - Wind Speed at 10 Meters Wind Speed at 10 meters (WSPD10M): 5.8 kts
5-day plot - Wind Speed at 20 Meters Wind Speed at 20 meters (WSPD20M): 7.8 kts
5-day plot -  Wind Speed, Wind Gust and Atmospheric Pressure Combined plot of Wind Speed, Gust, and Air Pressure
NOS Water Level Observation Network Water Level
Previous observations
TIME
(EDT)
5-day plot - Wind Direction
WDIR
 
5-day plot - Wind Speed
WSPD
kts
5-day plot - Wind Gust
GST
kts
5-day plot - Wave Height
WVHT
ft
5-day plot - Dominant Wave Period
DPD
sec
5-day plot - Average Wave Period
APD
sec
5-day plot - Mean Wave Direction
MWD
 
5-day plot - Atmospheric Pressure
PRES
in
5-day plot - Pressure Tendency
PTDY
in
5-day plot - Air Temperature
ATMP
°F
5-day plot - Water Temperature
WTMP
°F
5-day plot - Dew Point
DEWP
°F
5-day plot - Salinity
SAL
psu
5-day plot - Visibility
VIS
nmi
5-day plot - Tide (above MLLW)
TIDE
ft
2024-05-19 07:18 pm NW 5.1 7.0----29.90- 81.7 86.2----
2024-05-19 07:12 pmWNW 6.0 6.0----29.90- 81.5 86.2----
2024-05-19 07:06 pm NW 6.0 7.0----29.90- 81.5 86.2----
2024-05-19 07:00 pm NW 6.0 8.0------- 86.2----
2024-05-19 06:54 pmWNW 6.0 8.0------- 86.2----
2024-05-19 06:48 pm NW 6.0 8.0----29.90-- 86.2----
2024-05-19 06:42 pm NW 7.0 8.0----29.90-- 86.2----
2024-05-19 06:36 pm NW 6.0 8.0----29.90-- 86.2----
2024-05-19 06:30 pm NW 5.1 6.0----29.90-- 86.2----
2024-05-19 06:24 pm NW 5.1 7.0----29.90-- 86.2----
2024-05-19 06:18 pm-------29.90- 81.3 86.2----
2024-05-19 06:12 pm-------29.91- 81.1 86.2----
2024-05-19 06:06 pm-------29.91- 81.3 86.2----
2024-05-19 06:00 pm NW 5.1 6.0----29.91-0.04 81.3 86.2----
2024-05-19 05:54 pmWNW 5.1 8.0----29.91- 81.1 86.2----
2024-05-19 05:48 pm NW 7.0 8.0----29.91- 81.0 86.2----
2024-05-19 05:42 pmWNW 6.0 8.0----29.91- 81.0 86.0----
2024-05-19 05:36 pmWNW 6.0 7.0----29.91- 81.0 86.0----
2024-05-19 05:30 pm NW 7.0 8.9----29.91- 81.0 86.0----
2024-05-19 05:24 pm NW 8.0 8.0----29.90- 81.0 86.0----
2024-05-19 05:18 pmWNW 7.0 8.0----29.90- 81.1 86.0----
2024-05-19 05:12 pm NW 6.0 9.9----29.91- 81.0 86.0----
2024-05-19 05:06 pm NW 8.9 9.9----29.90- 81.0 86.0----
2024-05-19 05:00 pm NW 8.9 9.9----29.90-0.06 81.1 86.0----
2024-05-19 04:54 pmNNW 8.9 11.1----29.90- 81.7 86.0----
2024-05-19 04:48 pm NW 9.9 11.1----29.90- 81.0 86.0----
2024-05-19 04:42 pmNNW 9.9 12.0----29.90- 81.0 86.0----
2024-05-19 04:36 pm NW 9.9 11.1----29.90- 81.1 86.0----
2024-05-19 04:30 pmNNW 8.9 12.0----29.90- 81.1 86.0----
2024-05-19 04:24 pm NW 8.9 11.1----29.91- 81.1 86.0----
2024-05-19 04:18 pm NW 9.9 12.0----29.91- 81.1 86.0----
2024-05-19 04:12 pm NW 8.9 11.1----29.91- 81.3 86.0----
2024-05-19 04:06 pm NW 8.9 11.1----29.91- 81.1 86.0----
2024-05-19 04:00 pm NW 8.9 12.0----29.92-0.06- 85.8----
2024-05-19 03:54 pm NW 8.9 11.1----29.92-- 86.0----
2024-05-19 03:48 pm NW 8.9 9.9----29.92-- 85.8----
2024-05-19 03:42 pm NW 8.0 8.9----29.93-- 85.8----
2024-05-19 03:36 pm NW 8.0 9.9----29.93-- 85.8----
2024-05-19 03:30 pmNNW 8.0 8.9----29.93- 81.1 85.8----
2024-05-19 03:24 pm NW 7.0 8.0----29.93- 81.1 85.8----
2024-05-19 03:18 pm NW 6.0 8.0----29.94- 81.3 85.8----
2024-05-19 03:12 pmWNW 7.0 8.9----29.94- 81.1 85.8----
2024-05-19 03:06 pm NW 8.9 9.9----29.95- 81.1 85.8----
2024-05-19 03:00 pm NW 9.9 11.1----29.95-0.03- 85.8----
2024-05-19 02:54 pm NW 8.9 11.1----29.96-- 85.8----
2024-05-19 02:48 pmNNW 8.9 11.1----29.96- 81.1 85.8----
2024-05-19 02:42 pmNNW 8.9 12.0----29.96- 81.1 85.8----
2024-05-19 02:36 pm NW 9.9 13.0----29.96- 81.5 85.8----
2024-05-19 02:30 pm NW 11.1 12.0----29.96- 81.1 85.8----
2024-05-19 02:24 pm NW 8.0 11.1----29.97- 81.3 85.8----
2024-05-19 02:18 pm NW 8.9 12.0----29.97- 81.3 85.8----
2024-05-19 02:12 pm NW 8.9 12.0----29.96- 81.0 85.8----
2024-05-19 02:06 pm NW 9.9 12.0----29.96- 81.1 85.8----
2024-05-19 02:00 pmNNW 8.9 12.0----29.97-0.02 81.1 85.8----
2024-05-19 01:54 pmNNW 12.0 14.0----29.96- 81.1 85.8----
2024-05-19 01:48 pmNNW 11.1 13.0----29.96- 81.1 85.8----
2024-05-19 01:42 pmNNW 11.1 13.0----29.97- 81.1 85.8----
2024-05-19 01:36 pmNNW 12.0 13.0----29.96- 81.0 85.8----
2024-05-19 01:30 pmNNW 11.1 13.0----29.97- 81.3 85.6----
2024-05-19 01:24 pmNNW 11.1 13.0----29.97- 81.3 85.6----
2024-05-19 01:18 pmNNW 12.0 13.0----29.97-- 85.6----
2024-05-19 01:12 pmNNW 11.1 12.0----29.98-- 85.6----
2024-05-19 01:06 pmNNW 12.0 14.0----29.98-- 85.6----
2024-05-19 01:00 pmNNW 11.1 13.0----29.98+0.01- 85.6----
2024-05-19 12:54 pm NW 11.1 13.0----29.98-- 85.6----
2024-05-19 12:48 pmNNW 12.0 15.0----29.98- 81.3 85.6----
2024-05-19 12:42 pmNNW 15.0 15.9----29.98- 81.3 85.6----
2024-05-19 12:36 pmNNW 14.0 15.9----29.98- 81.7 85.6----
2024-05-19 12:30 pmNNW 15.0 17.1----29.98- 81.9 85.6----
2024-05-19 12:24 pmNNW 13.0 15.9----29.98- 81.5 85.6----
2024-05-19 12:18 pmNNW 14.0 15.9----29.98- 81.5 85.6----
2024-05-19 12:12 pmNNW 14.0 15.0----29.98- 81.3 85.6----
2024-05-19 12:06 pmNNW 12.0 15.9----29.98- 81.5 85.6----
2024-05-19 12:00 pmNNW 14.0 15.9----29.98+0.02 81.5 85.6----
2024-05-19 11:54 amNNW 13.0 15.0----29.98- 81.3 85.5----
2024-05-19 11:48 amNNW 12.0 15.0----29.98- 81.3 85.5----
2024-05-19 11:42 amNNW 13.0 15.9----29.99- 81.3 85.5----
2024-05-19 11:36 amNNW 12.0 14.0----29.99- 81.5 85.5----
2024-05-19 11:30 amNNW 13.0 15.0----29.99- 81.3 85.5----
2024-05-19 11:24 amNNW 13.0 15.0----29.99- 81.7 85.5----
2024-05-19 11:18 am-------29.99- 81.5 85.5----
2024-05-19 11:12 am-------29.99- 81.7 85.5----
2024-05-19 11:06 am-------29.99- 81.7 85.5----
2024-05-19 11:00 am-------29.99+0.06 82.0 85.5----
2024-05-19 10:54 am-------29.99- 81.7 85.3----
2024-05-19 10:48 am-------29.99- 81.7 85.5----
2024-05-19 10:42 am-------29.99- 81.7 85.3----
2024-05-19 10:36 am-------29.98- 81.9 85.3----
2024-05-19 10:30 am NW 15.9 18.1----29.98- 82.0 85.3----
2024-05-19 10:24 am NW 15.0 17.1----29.97- 82.0 85.3----
2024-05-19 10:18 amNNW 14.0 15.0----29.96- 81.9 85.5----
2024-05-19 10:12 amNNW 14.0 15.0----29.96- 81.9 85.5----
2024-05-19 10:06 amNNW 12.0 15.9----29.96- 81.9 85.5----
2024-05-19 10:00 am NW 13.0 15.0----29.97+0.04- 85.5----
2024-05-19 09:54 am NW 14.0 17.1----29.97-- 85.3----
2024-05-19 09:48 am-------29.97- 81.7 85.3----
2024-05-19 09:42 am-------29.98- 81.5 85.5----
2024-05-19 09:36 am-------29.98- 81.7 85.5----
2024-05-19 09:30 am NW 18.1 20.0----29.98-- 85.5----
2024-05-19 09:24 am NW 15.9 18.1----29.98-- 85.5----
2024-05-19 09:18 am NW 15.0 19.0----29.97-- 85.5----
2024-05-19 09:12 am NW 17.1 20.0----29.97-- 85.5----
2024-05-19 09:06 am NW 17.1 19.0----29.97-- 85.5----
2024-05-19 09:00 am NW 15.0 17.1----29.96+0.04- 85.5----
2024-05-19 08:54 am NW 15.0 18.1----29.96-- 85.5----
2024-05-19 08:48 am NW 18.1 20.0----29.97- 81.1 85.5----
2024-05-19 08:42 am NW 15.9 18.1----29.96- 81.3 85.5----
2024-05-19 08:36 amWNW 14.0 18.1----29.96- 81.3 85.6----
2024-05-19 08:30 am-------29.96- 81.1-----
2024-05-19 08:24 am-------29.96- 81.0-----
2024-05-19 08:18 amWNW 15.9 18.1----29.96-- 85.6----
2024-05-19 08:12 amWSW 15.0 17.1----29.96-- 85.6----
2024-05-19 08:06 am SW 15.9 21.0----29.96-- 85.6----
2024-05-19 08:00 amSSW 18.1 21.0----29.93+0.02 81.9 85.6----
2024-05-19 07:54 amSSW 18.1 20.0----29.93- 81.9 85.6----
2024-05-19 07:48 am SW 17.1 20.0----29.94- 81.9 85.6----
2024-05-19 07:42 am SW 18.1 22.0----29.94- 82.0 85.6----
2024-05-19 07:36 amSSW 18.1 21.0----29.93- 81.9 85.8----
2024-05-19 07:30 am SW 18.1 20.0----29.93- 82.0 85.8----
2024-05-19 07:24 am SW 18.1 22.9----29.92- 82.0 85.6----
2024-05-19 07:18 am SW 19.0 22.0----29.93- 81.9 85.6----
2024-05-19 07:12 am SW 17.1 22.9----29.93- 81.9 85.6----
2024-05-19 07:06 am SW 19.0 22.9----29.93- 81.9 85.6----
2024-05-19 07:00 am SW 21.0 22.0----29.93+0.03------
2024-05-19 06:54 am SW 19.0 24.1----29.93-------
2024-05-19 06:48 am SW 19.0 22.0----29.92-- 85.8----
2024-05-19 06:42 amSSW 18.1 21.0----29.92-- 85.8----
2024-05-19 06:36 amSSW 18.1 21.0----29.91-- 85.8----
2024-05-19 06:30 amSSW 17.1 20.0----29.92- 82.0 85.8----
2024-05-19 06:24 amSSW 19.0 21.0----29.92- 82.0 85.8----
2024-05-19 06:18 amSSW 15.9 19.0----29.93-- 85.8----
2024-05-19 06:12 amSSW 17.1 19.0----29.92-- 85.8----
2024-05-19 06:06 amSSW 17.1 19.0----29.92-- 85.8----
2024-05-19 06:00 am-------29.92+0.00------
2024-05-19 05:54 am-------29.92-------
2024-05-19 05:48 amSSW 18.1 19.0----29.92- 81.7 85.6----
2024-05-19 05:42 amSSW 15.0 18.1----29.92- 81.9 85.6----
2024-05-19 05:36 amSSW 17.1 18.1----29.92- 81.7 85.6----
2024-05-19 05:30 amSSW 15.0 18.1----29.92- 81.7 85.6----
2024-05-19 05:24 amSSW 14.0 17.1----29.92- 81.7 85.6----
2024-05-19 05:18 amSSW 15.0 15.9----29.92- 81.7 85.6----
2024-05-19 05:12 amSSW 14.0 15.0----29.92- 81.7 85.6----
2024-05-19 05:06 amSSW 15.0 17.1----29.92- 81.7 85.8----
2024-05-19 05:00 amSSW 14.0 15.9----29.92-0.03 81.7 85.8----
2024-05-19 04:54 amSSW 15.0 17.1----29.92- 81.7 85.8----
2024-05-19 04:48 amSSW 15.0 17.1----29.91- 81.9 85.8----
2024-05-19 04:42 am SW 14.0 15.9----29.92- 82.0 85.8----
2024-05-19 04:36 amSSW 14.0 15.9----29.92- 81.9 85.8----
2024-05-19 04:30 amSSW 13.0 15.0----29.92- 81.9 85.8----
2024-05-19 04:24 am SW 14.0 15.9----29.93- 82.0 85.8----
2024-05-19 04:18 amSSW 14.0 18.1----29.91- 81.7 85.8----
2024-05-19 04:12 amSSW 15.0 19.0----29.91- 82.0 85.8----
2024-05-19 04:06 am S 15.9 19.0----29.90- 81.7 85.8----
2024-05-19 04:00 am S 17.1 20.0----29.90-0.05 82.0 85.8----
2024-05-19 03:54 am S 17.1 19.0----29.90- 82.0 85.8----
2024-05-19 03:48 amSSW 14.0 15.9----29.91- 81.9 85.8----
2024-05-19 03:42 amSSW 13.0 15.0----29.91- 81.7 85.8----
2024-05-19 03:36 amSSW 14.0 15.0----29.91- 82.0 85.8----
2024-05-19 03:30 amSSW 13.0 15.0----29.91- 82.0 85.8----
2024-05-19 03:24 amSSW 14.0 15.9----29.92- 81.9 85.8----
2024-05-19 03:18 amSSW 14.0 15.9----29.91- 81.9 86.0----
2024-05-19 03:12 amSSW 15.0 15.9----29.92- 82.0 86.0----
2024-05-19 03:06 amSSW 15.0 15.9----29.92- 82.0 86.0----
2024-05-19 03:00 amSSW 15.0 15.9----29.92-0.02 82.0 86.2----
2024-05-19 02:54 amSSW 13.0 14.0----29.92- 81.9 86.2----
2024-05-19 02:48 am SW 13.0 14.0----29.93- 81.9 86.2----
2024-05-19 02:42 am SW 13.0 14.0----29.93- 82.0 86.2----
2024-05-19 02:36 am SW 13.0 15.0----29.93- 82.0 86.2----
2024-05-19 02:30 amSSW 14.0 15.0----29.93- 82.0 86.4----
2024-05-19 02:24 amSSW 13.0 15.0----29.93- 81.9 86.4----
2024-05-19 02:18 amSSW 14.0 14.0----29.94- 81.9 86.4----
2024-05-19 02:12 amSSW 13.0 14.0----29.94- 82.0 86.4----
2024-05-19 02:06 amSSW 13.0 14.0----29.94- 81.9 86.4----
2024-05-19 02:00 am SW 13.0 14.0----29.95-0.01 82.0 86.4----
2024-05-19 01:54 am SW 13.0 15.0----29.95- 82.0 86.4----
2024-05-19 01:48 am SW 13.0 14.0----29.95- 82.2 86.4----
2024-05-19 01:42 amSSW 13.0 14.0----29.95- 82.2 86.4----
2024-05-19 01:36 amSSW 13.0 14.0----29.95- 82.2 86.4----
2024-05-19 01:30 amSSW 13.0 14.0----29.95- 82.2 86.4----
2024-05-19 01:24 amSSW 13.0 15.0----29.96- 82.4 86.4----
2024-05-19 01:18 amSSW 15.0 15.9----29.95- 82.0 86.4----
2024-05-19 01:12 am S 13.0 15.0----29.95- 82.2 86.4----
2024-05-19 01:06 amSSW 14.0 15.9----29.95- 82.2 86.5----
2024-05-19 01:00 amSSW 13.0 15.0----29.95-0.02 82.2 86.5----
2024-05-19 12:54 amSSW 13.0 15.0----29.96- 82.2 86.5----
2024-05-19 12:48 am S 13.0 15.0----29.95- 82.2 86.5----
2024-05-19 12:42 am S 13.0 15.9----29.95- 82.2 86.5----
2024-05-19 12:36 am S 12.0 13.0----29.96- 82.2 86.5----
2024-05-19 12:30 am S 11.1 12.0----29.96- 82.0 86.5----
2024-05-19 12:24 amSSW 9.9 11.1----29.96- 82.0 86.5----
2024-05-19 12:18 amSSW 7.0 12.0----29.96- 82.2 86.5----
2024-05-19 12:12 amSSE 9.9 15.9----29.94- 81.9 86.5----
2024-05-19 12:06 am S 11.1 15.0----29.94- 82.2 86.5----
2024-05-19 12:00 am S 12.0 15.0----29.94+0.00 82.2 86.5----
2024-05-18 11:54 pm S 14.0 18.1----29.94- 82.2 86.5----
2024-05-18 11:48 pm S 15.9 19.0----29.93- 82.2 86.5----
2024-05-18 11:42 pm S 15.9 18.1----29.93- 82.2 86.5----
2024-05-18 11:36 pm S 13.0 15.9----29.95- 82.2 86.5----
2024-05-18 11:30 pm S 12.0 14.0----29.96- 82.4 86.5----
2024-05-18 11:24 pm S 13.0 14.0----29.95- 82.4 86.5----
2024-05-18 11:18 pmSSW 12.0 13.0----29.96- 82.2 86.5----
2024-05-18 11:12 pmSSW 11.1 12.0----29.96- 82.4 86.5----
2024-05-18 11:06 pmSSW 11.1 12.0----29.96- 82.2 86.5----
2024-05-18 11:00 pmSSW 11.1 12.0----29.96+0.04 82.2 86.5----
2024-05-18 10:54 pmSSW 8.9 12.0----29.97- 82.2 86.7----
2024-05-18 10:48 pmSSW 11.1 12.0----29.97- 82.4 86.7----
2024-05-18 10:42 pmSSW 12.0 12.0----29.97- 82.4 86.7----
2024-05-18 10:36 pmSSW 8.9 11.1----29.97- 82.6 86.7----
2024-05-18 10:30 pmSSW 9.9 11.1----29.97- 82.4 86.7----
2024-05-18 10:24 pm SW 8.9 11.1----29.97- 82.6 86.7----
2024-05-18 10:18 pm SW 9.9 11.1----29.97- 82.6 86.7----
2024-05-18 10:12 pm SW 9.9 11.1----29.97- 82.6 86.7----
2024-05-18 10:06 pm SW 8.0 11.1----29.97- 82.6 86.7----
2024-05-18 10:00 pm SW 8.9 11.1----29.97+0.04 82.6 86.7----
2024-05-18 09:54 pmSSW 8.0 8.9----29.96- 82.8 86.7----
2024-05-18 09:48 pmSSW 8.9 9.9----29.96- 82.6 86.7----
2024-05-18 09:42 pmSSW 8.9 9.9----29.95- 82.6 86.7----
2024-05-18 09:36 pmSSW 8.0 9.9----29.95- 82.9 86.7----
2024-05-18 09:30 pmSSW 8.9 9.9----29.95- 82.8 86.7----
2024-05-18 09:24 pmSSW 8.9 11.1----29.95- 82.8 86.9----
2024-05-18 09:18 pmSSW 8.9 11.1----29.95- 82.6 86.9----
2024-05-18 09:12 pmSSW 8.9 11.1----29.95- 82.4 86.9----
2024-05-18 09:06 pmSSW 8.9 9.9----29.95- 82.6 86.9----
2024-05-18 09:00 pmSSW 8.9 11.1----29.95+0.00 82.6 86.9----
2024-05-18 08:54 pmSSW 8.0 8.9----29.95- 82.8 86.9----
2024-05-18 08:48 pmSSW 8.9 9.9----29.94- 82.9 86.9----
2024-05-18 08:42 pmSSW 8.9 9.9----29.94- 82.8 86.9----
2024-05-18 08:36 pmSSW 8.9 9.9----29.94- 82.9 86.9----
2024-05-18 08:30 pmSSW 8.9 9.9----29.93- 82.8 86.9----
2024-05-18 08:24 pm S 9.9 11.1----29.93- 82.6 86.9----
2024-05-18 08:18 pm S 8.9 9.9----29.93- 82.9 86.9----
2024-05-18 08:12 pm S 8.0 9.9----29.93- 82.8 86.9----
2024-05-18 08:06 pm S 8.9 11.1----29.93- 82.8 86.9----
2024-05-18 08:00 pm S 9.9 11.1----29.93-0.05 82.6 86.9----
2024-05-18 07:54 pmSSW 8.9 8.9----29.93- 82.6 86.9----